| time (UTC) | temp C | wind direction | speed KPH | gust KPH | rain 1hr cm | rain 24hr cm | rain mn cm | humidity % | barometer mb |
| 20260507021208 | -17 | 135 | 1.6 | 3.2 | 0.00 | 0.00 | 0.00 | 1007.5 | |
| 20260507020121 | -17 | 135 | 0.0 | 4.8 | 0.00 | 0.00 | 0.00 | 1007.5 | |
| 20260507015037 | -17 | 90 | 1.6 | 3.2 | 0.00 | 0.00 | 0.00 | 1007.3 | |
| 20260507013955 | -17 | 135 | 0.0 | 1.6 | 0.00 | 0.00 | 0.00 | 1007.3 | |
| 20260507012910 | -17 | 225 | 0.0 | 0.0 | 0.00 | 0.00 | 0.00 | 1007.4 | |
| 20260507011827 | -17 | 225 | 0.0 | 3.2 | 0.00 | 0.00 | 0.00 | 1007.4 | |
| 20260507010743 | -17 | 315 | 0.0 | 1.6 | 0.00 | 0.00 | 0.00 | 1007.2 | |
| 20260507005659 | -17 | 0 | 0.0 | 3.2 | 0.00 | 0.00 | 0.00 | 1007.4 | |
| 20260507004615 | -17 | 315 | 0.0 | 6.4 | 0.00 | 0.00 | 0.00 | 1007.1 | |
| 20260507003530 | -17 | 315 | 1.6 | 4.8 | 0.00 | 0.00 | 0.00 | 1007.2 | |
| 20260507002447 | -17 | 315 | 0.0 | 6.4 | 0.00 | 0.00 | 0.00 | 1006.8 | |
| 20260507001404 | -17 | 315 | 1.6 | 4.8 | 0.00 | 0.00 | 0.00 | 1006.7 | |
| 20260507000321 | -17 | 45 | 3.2 | 4.8 | 0.00 | 0.00 | 0.00 | 1006.6 | |
| 20260506235236 | -17 | 0 | 1.6 | 4.8 | 0.00 | 0.00 | 0.00 | 1006.5 | |
| 20260506234156 | -17 | 315 | 0.0 | 1.6 | 0.00 | 0.00 | 0.00 | 1006.4 | |
| 20260506233113 | -17 | 0 | 0.0 | 3.2 | 0.00 | 0.00 | 0.00 | 1006.3 | |
| 20260506232027 | -17 | 0 | 3.2 | 6.4 | 0.00 | 0.00 | 0.00 | 1006.3 | |
| 20260506230942 | -17 | 0 | 1.6 | 9.7 | 0.00 | 0.00 | 0.00 | 1006.5 | |
| 20260506225859 | -17 | 23 | 6.4 | 8.0 | 0.00 | 0.00 | 0.00 | 1006.4 | |
| 20260506224818 | -17 | 45 | 6.4 | 12.9 | 0.00 | 0.00 | 0.00 | 1006.4 | |
| 20260506223735 | -17 | 0 | 4.8 | 9.7 | 0.00 | 0.00 | 0.00 | 1006.4 | |
| 20260506222653 | -17 | 0 | 3.2 | 9.7 | 0.00 | 0.00 | 0.00 | 1006.5 | |
| 20260506221609 | -17 | 23 | 4.8 | 12.9 | 0.00 | 0.00 | 0.00 | 1006.4 | |
| 20260506220526 | -17 | 45 | 6.4 | 17.7 | 0.00 | 0.00 | 0.00 | 1006.1 | |
| 20260506215439 | -17 | 315 | 4.8 | 11.3 | 0.00 | 0.00 | 0.00 | 1005.5 | |
| 20260506214359 | -17 | 270 | 3.2 | 4.8 | 0.00 | 0.00 | 0.00 | 1004.6 | |
| 20260506213315 | -17 | 0 | 3.2 | 3.2 | 0.00 | 0.00 | 0.00 | 1004.3 | |
| 20260506212232 | -17 | 135 | 0.0 | 1.6 | 0.00 | 0.00 | 0.00 | 1004.1 | |
| 20260506211140 | -17 | 135 | 0.0 | 1.6 | 0.00 | 0.00 | 0.00 | 1004.1 | |
| 20260506210051 | -17 | 315 | 0.0 | 1.6 | 0.00 | 0.00 | 0.00 | 1004.2 | |
| 20260506205007 | -17 | 135 | 1.6 | 3.2 | 0.00 | 0.00 | 0.00 | 1004.2 | |
| 20260506203925 | -17 | 135 | 0.0 | 0.0 | 0.00 | 0.00 | 0.00 | 1004.2 | |
| 20260506202841 | -17 | 135 | 0.0 | 0.0 | 0.00 | 0.00 | 0.00 | 1004.3 | |
| 20260506201801 | -17 | 135 | 0.0 | 3.2 | 0.00 | 0.00 | 0.00 | 1004.3 | |
| 20260506200716 | -17 | 135 | 0.0 | 0.0 | 0.00 | 0.00 | 0.00 | 1004.5 | |
| 20260506195632 | -17 | 135 | 0.0 | 0.0 | 0.00 | 0.00 | 0.00 | 1004.6 | |
| 20260506194548 | -17 | 315 | 0.0 | 0.0 | 0.00 | 0.00 | 0.00 | 1004.5 | |
| 20260506193506 | -17 | 270 | 1.6 | 3.2 | 0.00 | 0.00 | 0.00 | 1004.6 | |
| 20260506192423 | -17 | 315 | 0.0 | 0.0 | 0.00 | 0.00 | 0.00 | 1004.6 | |
| 20260506191340 | -17 | 0 | 0.0 | 3.2 | 0.00 | 0.00 | 0.00 | 1004.8 | |
| 20260506190257 | -17 | 315 | 0.0 | 4.8 | 0.00 | 0.00 | 0.00 | 1004.7 | |
| 20260506185212 | -17 | 225 | 6.4 | 6.4 | 0.00 | 0.00 | 0.00 | 1004.9 | |
| 20260506184129 | -17 | 315 | 0.0 | 9.7 | 0.00 | 0.00 | 0.00 | 1004.7 | |
| 20260506183044 | -17 | 0 | 3.2 | 8.0 | 0.00 | 0.00 | 0.00 | 1004.5 | |
| 20260506181958 | -17 | 315 | 3.2 | 8.0 | 0.00 | 0.00 | 0.00 | 1004.2 | |
| 20260506180913 | -17 | 90 | 1.6 | 8.0 | 0.00 | 0.00 | 0.00 | 1004.1 | |
| 20260506175829 | -17 | 0 | 1.6 | 4.8 | 0.00 | 0.00 | 0.00 | 1003.8 | |
| 20260506174746 | -17 | 0 | 3.2 | 4.8 | 0.00 | 0.00 | 0.00 | 1003.3 | |
| 20260506173707 | -17 | 0 | 0.0 | 4.8 | 0.00 | 0.00 | 0.00 | 1003.1 | |
| 20260506172624 | -17 | 90 | 3.2 | 4.8 | 0.00 | 0.00 | 0.00 | 1003.1 | |
| 20260506171542 | -17 | 315 | 0.0 | 6.4 | 0.00 | 0.00 | 0.00 | 1003.2 | |
| 20260506170503 | -17 | 0 | 1.6 | 6.4 | 0.00 | 0.00 | 0.00 | 1003.0 | |
| 20260506165420 | -17 | 0 | 0.0 | 9.7 | 0.00 | 0.00 | 0.00 | 1003.0 | |
| 20260506164336 | -17 | 45 | 0.0 | 6.4 | 0.00 | 0.00 | 0.00 | 1002.9 | |
| 20260506163253 | -17 | 0 | 4.8 | 8.0 | 0.00 | 0.00 | 0.00 | 1003.0 | |
| 20260506162209 | -17 | 45 | 1.6 | 12.9 | 0.00 | 0.00 | 0.00 | 1003.0 | |
| 20260506161125 | -17 | 113 | 1.6 | 11.3 | 0.00 | 0.00 | 0.00 | 1002.7 | |
| 20260506160041 | -17 | 180 | 8.0 | 22.5 | 0.00 | 0.00 | 0.00 | 1002.7 | |
| 20260506154959 | -17 | 135 | 11.3 | 12.9 | 0.00 | 0.00 | 0.00 | 1002.8 | |
| 20260506153918 | -17 | 180 | 8.0 | 32.2 | 0.00 | 0.00 | 0.00 | 1002.9 | |
| 20260506152833 | -17 | 135 | 3.2 | 17.7 | 0.00 | 0.00 | 0.00 | 1002.9 | |
| 20260506151752 | -17 | 135 | 9.7 | 22.5 | 0.00 | 0.00 | 0.00 | 1003.0 | |
| 20260506150709 | -17 | 225 | 8.0 | 24.1 | 0.00 | 0.00 | 0.00 | 1002.9 | |
| 20260506145624 | -17 | 90 | 9.7 | 25.7 | 0.00 | 0.00 | 0.00 | 1003.2 | |
| 20260506143457 | -17 | 180 | 6.4 | 27.4 | 0.00 | 0.00 | 0.00 | 1003.5 | |
| 20260506142416 | -17 | 180 | 6.4 | 29.0 | 0.00 | 0.00 | 0.00 | 1003.6 | |
| 20260506141332 | -17 | 180 | 12.9 | 25.7 | 0.00 | 0.00 | 0.00 | 1003.7 | |
| 20260506140249 | -17 | 180 | 6.4 | 12.9 | 0.00 | 0.00 | 0.00 | 1003.7 | |
| 20260506135203 | -17 | 135 | 6.4 | 14.5 | 0.00 | 0.00 | 0.00 | 1003.8 | |
| 20260506134118 | -17 | 90 | 6.4 | 12.9 | 0.00 | 0.00 | 0.00 | 1004.0 | |
| 20260506133036 | -17 | 248 | 6.4 | 12.9 | 0.00 | 0.00 | 0.00 | 1004.2 | |
| 20260506131950 | -17 | 270 | 9.7 | 17.7 | 0.00 | 0.00 | 0.00 | 1004.4 | |
| 20260506130257 | -17 | 225 | 4.8 | 22.5 | 0.00 | 0.00 | 0.00 | 1004.6 | |
| 20260506124449 | -17 | 270 | 9.7 | 22.5 | 0.00 | 0.00 | 0.00 | 1004.7 | |
| 20260506122728 | -17 | 135 | 3.2 | 20.9 | 0.00 | 0.00 | 0.00 | 1004.9 | |
| 20260506121646 | -17 | 180 | 9.7 | 17.7 | 0.00 | 0.00 | 0.00 | 1004.9 | |
| 20260506120601 | -17 | 270 | 9.7 | 14.5 | 0.00 | 0.00 | 0.00 | 1004.9 | |
| 20260506115518 | -17 | 135 | 6.4 | 19.3 | 0.00 | 0.00 | 0.00 | 1004.9 | |
| 20260506114433 | -17 | 90 | 1.6 | 14.5 | 0.00 | 0.00 | 0.00 | 1005.1 | |
| 20260506113350 | -17 | 180 | 4.8 | 12.9 | 0.00 | 0.00 | 0.00 | 1005.1 | |
| 20260506112306 | -17 | 315 | 4.8 | 16.1 | 0.00 | 0.00 | 0.00 | 1005.2 | |
| 20260506111224 | -17 | 203 | 9.7 | 12.9 | 0.00 | 0.00 | 0.00 | 1005.3 | |
| 20260506110141 | -17 | 225 | 9.7 | 14.5 | 0.00 | 0.00 | 0.00 | 1005.5 | |
| 20260506105057 | -17 | 225 | 6.4 | 16.1 | 0.00 | 0.00 | 0.00 | 1005.6 | |
| 20260506104014 | -17 | 270 | 9.7 | 16.1 | 0.00 | 0.00 | 0.00 | 1005.6 | |
| 20260506102930 | -17 | 225 | 9.7 | 17.7 | 0.00 | 0.00 | 0.00 | 1005.6 | |
| 20260506101846 | -17 | 270 | 9.7 | 19.3 | 0.00 | 0.00 | 0.00 | 1005.8 | |
| 20260506100804 | -17 | 135 | 12.9 | 30.6 | 0.00 | 0.00 | 0.00 | 1006.0 | |
| 20260506095721 | -17 | 270 | 17.7 | 20.9 | 0.00 | 0.00 | 0.00 | 1006.0 | |
| 20260506094638 | -17 | 225 | 16.1 | 20.9 | 0.00 | 0.00 | 0.00 | 1006.0 | |
| 20260506093554 | -17 | 225 | 12.9 | 19.3 | 0.00 | 0.00 | 0.00 | 1006.2 | |
| 20260506092513 | -17 | 315 | 9.7 | 20.9 | 0.00 | 0.00 | 0.00 | 1006.3 | |
| 20260506091430 | -17 | 315 | 11.3 | 14.5 | 0.00 | 0.00 | 0.00 | 1006.3 | |
| 20260506090347 | -17 | 270 | 11.3 | 16.1 | 0.00 | 0.00 | 0.00 | 1006.5 | |
| 20260506085306 | -17 | 225 | 8.0 | 20.9 | 0.00 | 0.00 | 0.00 | 1006.5 | |
| 20260506084221 | -17 | 270 | 4.8 | 20.9 | 0.00 | 0.00 | 0.00 | 1006.6 | |
| 20260506083137 | -17 | 270 | 9.7 | 14.5 | 0.00 | 0.00 | 0.00 | 1006.6 | |
| 20260506082054 | -17 | 270 | 8.0 | 17.7 | 0.00 | 0.00 | 0.00 | 1006.7 | |
| 20260506081012 | -17 | 270 | 6.4 | 22.5 | 0.00 | 0.00 | 0.00 | 1006.7 | |
| 20260506072721 | -17 | 225 | 9.7 | 16.1 | 0.00 | 0.00 | 0.00 | 1006.9 | |
| 20260506071637 | -17 | 0 | 8.0 | 16.1 | 0.00 | 0.00 | 0.00 | 1006.8 | |
| 20260506070554 | -17 | 0 | 11.3 | 27.4 | 0.00 | 0.00 | 0.00 | 1007.0 | |
| 20260506061220 | -17 | 45 | 4.8 | 24.1 | 0.00 | 0.00 | 0.00 | 1007.0 | |
| 20260506060138 | -17 | 0 | 9.7 | 16.1 | 0.00 | 0.00 | 0.00 | 1007.1 | |
| 20260506050757 | -17 | 270 | 6.4 | 14.5 | 0.00 | 0.00 | 0.00 | 1006.8 | |
| 20260506044630 | -17 | 225 | 0.0 | 4.8 | 0.00 | 0.00 | 0.00 | 1006.6 | |
| 20260506043545 | -17 | 225 | 3.2 | 4.8 | 0.00 | 0.00 | 0.00 | 1006.6 | |
| 20260506042459 | -17 | 270 | 0.0 | 4.8 | 0.00 | 0.00 | 0.00 | 1006.5 | |
| 20260506041317 | -17 | 180 | 1.6 | 4.8 | 0.00 | 0.00 | 0.00 | 1006.3 | |
| 20260506035019 | -17 | 180 | 6.4 | 6.4 | 0.00 | 0.00 | 0.00 | 1006.1 | |
| 20260506033933 | -17 | 225 | 4.8 | 6.4 | 0.00 | 0.00 | 0.00 | 1006.0 | |
| 20260506032850 | -17 | 135 | 0.0 | 6.4 | 0.00 | 0.00 | 0.00 | 1005.8 | |
| 20260506031758 | -17 | 225 | 4.8 | 8.0 | 0.00 | 0.00 | 0.00 | 1006.1 | |
| 20260506030701 | -17 | 180 | 0.0 | 3.2 | 0.00 | 0.00 | 0.00 | 1006.3 | |
| 20260506025618 | -17 | 135 | 0.0 | 3.2 | 0.00 | 0.00 | 0.00 | 1006.1 | |
| 20260506024534 | -17 | 135 | 1.6 | 1.6 | 0.00 | 0.00 | 0.00 | 1006.1 | |
| 20260506023447 | -17 | 135 | 1.6 | 1.6 | 0.00 | 0.00 | 0.00 | 1005.9 | |
| 20260506022402 | -17 | 135 | 1.6 | 3.2 | 0.00 | 0.00 | 0.00 | 1005.8 |